Scottsbluff, NE

6:26 PM MDT on April 25, 2018 (GMT -0600)
Heilig

Weather History for KBFF - January, 2000

Change the Weather History Date:

Monday, January 10, 2000

  Actual Average Record
Temperature  
Mean Temperature 28 °F 27 °F  
Max Temperature 41 °F 41 °F 66 °F (1990)
Min Temperature 15 °F 13 °F -14 °F (1937)
Degree Days  
Heating Degree Days 37 38  
Month to date heating degree days 385  
Since 1 July heating degree days 3157  
Cooling Degree Days 0 0  
Month to date cooling degree days 0  
Year to date cooling degree days 0  
Moisture  
Dew Point 17 °F    
Average Humidity 67    
Maximum Humidity 86    
Minimum Humidity 43    
Precipitation  
Precipitation 0.00 in 0.02 in 0.20 in (1920)
Month to date precipitation 0.14  
Year to date precipitation 0.14  
Snow  
Snow 0.00 in 0.10 in 2.50 in (1909)
Month to date snowfall 1.8  
Since 1 July snowfall 17.8  
Snow Depth -    
Sea Level Pressure  
Sea Level Pressure 29.74 in    
Wind  
Wind Speed 17 mph (NW)    
Max Wind Speed 29 mph    
Max Gust Speed 45 mph    
Visibility 8 miles    
Events Snow    
T = Trace of Precipitation, MM = Missing Value Source: NWS Daily Summary

Daily Weather History Graph

Daily Weather History Graph

Search for Another Location

Airport or City:

Astronomy

Jan. 10, 2000 Rise Set
Actual Time 7:21 AM MST 4:42 PM MST
Civil Twilight 6:50 AM MST 5:13 PM MST
Nautical Twilight 6:15 AM MST 5:48 PM MST
Astronomical Twilight 5:42 AM MST 6:21 PM MST
Moon 9:48 AM MST (1/10) 8:41 PM MST (1/10)
Length of Visible Light 10h 23m
Length of Day
9h 20m
Waxing Crescent, 15% of the Moon is Illuminated
Jan 10
Waxing Crescent
Jan 14
First Quarter
Jan 20
Full
Jan 28
Last Quarter
Feb 5
New

Hourly Weather History & Observations

Time (MST) Temp. Windchill Dew Point Humidity Pressure Visibility Wind Dir Wind Speed Gust Speed Precip Events Conditions
12:54 AM 35.1 °F 25.5 °F 19.0 °F 52% 29.47 in 10.0 mi WNW 15.0 mph - N/A   Clear
1:54 AM 37.9 °F 26.3 °F 21.0 °F 51% 29.44 in 10.0 mi WNW 26.5 mph 32.2 mph N/A   Clear
2:54 AM 41.0 °F 30.0 °F 19.9 °F 43% 29.43 in 10.0 mi West 28.8 mph 44.9 mph N/A   Clear
3:54 AM 39.0 °F 28.8 °F 21.9 °F 50% 29.44 in 10.0 mi West 21.9 mph 29.9 mph N/A   Clear
4:54 AM 41.0 °F 30.5 °F 19.9 °F 43% 29.45 in 10.0 mi WNW 26.5 mph 33.4 mph N/A   Scattered Clouds
5:18 AM 32.0 °F 18.9 °F 24.8 °F 75% 29.48 in 8.0 mi North 24.2 mph 33.4 mph N/A   Overcast
5:54 AM 30.0 °F 17.5 °F 24.1 °F 79% 29.58 in 10.0 mi North 19.6 mph 26.5 mph N/A   Overcast
6:46 AM 28.4 °F 15.8 °F 24.8 °F 86% 29.59 in 2.0 mi North 18.4 mph 26.5 mph 0.00 in Snow Light Snow
6:54 AM 28.0 °F 12.8 °F 21.9 °F 78% 29.66 in 2.5 mi North 27.6 mph 38.0 mph 0.00 in Snow Light Snow
6:57 AM 28.4 °F 15.1 °F 21.2 °F 74% 29.59 in 4.0 mi North 20.7 mph 38.0 mph 0.00 in Snow Light Snow
7:54 AM 27.0 °F 14.3 °F 17.1 °F 66% 29.70 in 10.0 mi NNW 17.3 mph 24.2 mph 0.00 in   Overcast
8:42 AM 26.6 °F 14.3 °F 17.6 °F 69% 29.68 in 5.0 mi NNW 16.1 mph - 0.00 in Snow Light Snow
8:54 AM 26.1 °F 14.5 °F 16.0 °F 66% 29.76 in 7.0 mi NW 13.8 mph 23.0 mph 0.00 in   Overcast
9:46 AM 24.8 °F 11.9 °F 17.6 °F 74% 29.73 in 1.8 mi NW 16.1 mph - 0.00 in Snow Light Snow
9:54 AM 25.0 °F 13.1 °F 19.0 °F 78% 29.82 in 1.2 mi WNW 13.8 mph - 0.00 in Snow Light Snow
10:07 AM 24.8 °F 14.0 °F 19.4 °F 80% 29.74 in 3.0 mi WNW 11.5 mph - 0.00 in Snow Light Snow
10:37 AM 26.6 °F 16.2 °F 21.2 °F 80% 29.75 in 9.0 mi West 11.5 mph - 0.00 in   Overcast
10:54 AM 26.1 °F 16.2 °F 21.0 °F 81% 29.82 in 8.0 mi West 10.4 mph - 0.00 in Snow Light Snow
11:07 AM 26.6 °F 15.7 °F 17.6 °F 69% 29.75 in 5.0 mi WNW 12.7 mph - 0.00 in Snow Light Snow
11:42 AM 28.4 °F 16.6 °F 17.6 °F 64% 29.74 in 10.0 mi West 16.1 mph 20.7 mph 0.00 in   Mostly Cloudy
11:54 AM 28.0 °F 17.0 °F 18.0 °F 66% 29.80 in 10.0 mi West 13.8 mph 20.7 mph 0.00 in   Mostly Cloudy
12:54 PM 30.2 °F 19.3 °F 19.4 °F 64% 29.75 in 10.0 mi West 15.0 mph - N/A   Partly Cloudy
1:54 PM 30.0 °F 20.0 °F 19.9 °F 66% 29.81 in 10.0 mi WNW 12.7 mph - N/A   Mostly Cloudy
2:54 PM 30.9 °F 19.8 °F 12.0 °F 46% 29.83 in 10.0 mi NW 16.1 mph - N/A   Mostly Cloudy
3:54 PM 28.9 °F 19.8 °F 9.0 °F 43% 29.87 in 10.0 mi NW 10.4 mph - N/A   Clear
4:54 PM 23.0 °F 13.9 °F 10.9 °F 60% 29.90 in 10.0 mi West 8.1 mph - N/A   Clear
5:54 PM 19.0 °F 11.1 °F 10.9 °F 71% 29.95 in 10.0 mi WNW 5.8 mph - N/A   Overcast
6:54 PM 17.1 °F 8.7 °F 10.0 °F 74% 29.96 in 10.0 mi NNW 5.8 mph - N/A   Scattered Clouds
7:54 PM 15.1 °F 9.4 °F 9.0 °F 77% 29.99 in 10.0 mi NE 3.5 mph - N/A   Mostly Cloudy
8:54 PM 16.0 °F 8.8 °F 10.0 °F 77% 29.98 in 10.0 mi NE 4.6 mph - N/A   Scattered Clouds
9:54 PM 19.9 °F 14.9 °F 12.9 °F 74% 29.97 in 10.0 mi East 3.5 mph - N/A   Overcast
10:54 PM 21.9 °F 12.5 °F 12.9 °F 68% 29.96 in 8.0 mi ESE 8.1 mph - 0.00 in Snow Light Snow
11:54 PM 21.9 °F 12.5 °F 15.1 °F 75% 29.93 in 10.0 mi East 8.1 mph - 0.00 in   Overcast